Theta_e
308 308 308 309 312 312 310 310 314 314 315 314 314 313 312 312 311 310 311 313 314 315 316 319 320 322 320 321 325 324 326 325 320 320 323 325 325 325 325 327 327 326 327
307 307 307 307 309 308 308 310 313 313 314 315 314 313 313 313 311 310 311 313 312 313 315 316 317 323 323 325 323 321 320 322 321 318 319 321 321 322 322 323 325 330 329
305 306 306 306 306 306 308 309 310 311 312 312 312 313 313 313 311 311 312 312 312 312 313 316 319 321 322 318 319 319 319 320 319 318 318 322 323 320 321 317 320 320 325
304 303 303 303 303 303 305 306 307 310 310 308 309 311 313 313 313 313 313 312 312 313 313 313 314 317 319 319 318 318 318 317 318 317 318 319 318 319 315 313 314 317 319
303 302 302 303 303 303 303 304 305 306 307 308 308 309 310 311 312 311 312 312 311 310 311 312 313 314 316 318 320 320 319 317 317 316 316 318 313 314 313 315 314 311 313
302 302 303 303 304 303 304 304 304 305 305 305 305 308 309 311 307 306 309 309 310 311 310 311 312 314 314 312 312 316 318 316 317 317 317 317 316 313 312 310 309 307 305
300 301 302 302 302 302 303 303 302 302 302 302 302 304 306 306 303 303 305 307 309 310 311 312 313 315 314 314 312 311 314 312 315 321 318 313 310 310 310 308 307 306 306
297 298 299 299 299 299 300 300 301 302 301 302 303 303 303 306 302 301 302 304 306 309 311 312 313 314 315 314 314 315 317 320 319 320 320 313 311 311 311 309 308 306 304
295 295 296 297 297 297 296 296 297 298 300 302 303 303 303 304 300 300 301 304 306 308 311 314 314 314 310 304 315 315 317 315 311 308 308 304 302 303 308 307 302 301 299
294 295 296 296 295 295 295 295 297 298 298 300 301 302 303 302 300 298 300 303 305 309 313 314 308 307 302 303 314 313 309 309 310 306 306 303 303 303 303 306 303 301 300
294 294 294 294 294 295 294 295 295 296 297 298 298 299 303 303 303 298 298 301 307 310 311 312 314 301 300 301 305 311 309 309 306 308 306 306 306 306 304 303 304 304 302
293 292 292 293 293 294 293 293 294 294 295 294 294 296 302 302 300 299 297 296 304 308 308 312 313 298 299 299 304 298 300 305 309 306 305 303 302 302 303 304 305 306 308
291 291 291 292 292 292 292 292 292 293 293 294 297 298 300 301 302 298 296 294 297 305 306 308 302 295 297 298 297 297 302 309 306 304 303 302 302 303 304 305 310 312 312
289 289 290 290 290 291 292 292 292 292 293 294 296 299 299 299 297 298 303 301 300 304 304 305 304 299 299 301 301 303 308 308 307 305 304 302 303 303 304 305 306 309 309
288 288 289 290 290 291 291 292 292 294 295 295 298 299 297 295 296 296 297 307 308 305 304 305 304 304 304 304 304 306 307 306 306 304 304 302 302 303 303 305 308 309 314
287 287 288 289 290 290 291 291 292 292 293 293 293 295 300 296 294 293 294 294 296 295 303 304 302 306 306 306 304 303 304 304 305 305 304 303 303 302 303 306 309 310 316
286 286 287 288 288 289 290 290 289 293 294 293 292 293 294 294 292 292 293 295 293 293 305 304 304 306 305 307 306 304 303 305 305 305 304 303 304 304 304 307 308 311 316
286 287 286 287 288 288 289 290 291 289 292 294 292 293 291 292 291 291 293 297 301 301 308 305 305 306 306 306 307 305 305 305 304 304 304 305 304 305 307 307 308 310 311
286 287 288 289 290 290 290 290 291 291 292 295 296 291 292 291 291 291 291 300 299 300 306 307 306 307 308 307 307 306 306 305 304 304 304 304 305 306 307 307 307 300 302
287 289 290 290 291 291 290 290 290 290 293 293 295 294 293 291 290 292 294 298 299 299 302 306 307 308 308 308 308 306 305 303 302 302 301 303 306 308 308 307 308 311 312
288 290 290 296 294 291 290 290 291 291 293 293 295 295 289 293 291 291 293 296 298 299 300 304 305 306 307 306 304 302 301 301 301 302 304 304 307 307 309 309 310 310 314
290 294 296 294 293 292 291 291 291 292 293 292 294 294 286 294 292 292 293 296 299 300 302 302 304 305 304 304 302 301 300 300 302 304 306 308 309 310 310 310 310 311 314
291 292 294 295 293 290 291 292 292 291 292 292 294 296 295 296 294 292 294 295 297 299 301 303 303 302 301 302 303 302 302 302 303 306 309 309 310 310 311 311 312 314 314
288 290 291 292 294 292 292 291 291 290 292 292 294 296 296 298 298 294 295 296 297 300 303 303 301 302 302 303 305 306 308 308 309 312 312 311 311 308 313 315 315 315 315
286 287 287 288 289 290 294 293 292 292 293 293 295 295 296 296 297 297 296 298 298 300 302 300 301 304 304 304 305 306 298 289 305 298 312 312 312 313 313 314 310 306 304
283 284 285 285 286 287 288 290 293 294 293 293 296 296 296 296 297 297 296 299 300 298 298 301 302 302 302 303 303 295 291 288 296 290 306 310 312 312 314 311 308 305 303
Wind_Speed
8 8 8 8 8 7 7 7 8 7 8 8 8 7 7 6 6 5 5 7 6 6 5 7 9 9 8 8 7 6 7 6 6 4 4 2 3 5 6 5 3 5 3
6 7 7 6 7 7 8 10 8 9 8 9 8 7 7 7 6 7 7 6 6 8 9 6 8 6 8 8 7 7 6 5 5 8 2 3 3 2 4 5 4 3 4
5 6 6 7 7 8 8 8 6 8 8 7 7 8 8 8 7 7 7 7 7 7 9 9 8 7 8 6 6 6 5 5 7 6 11 5 4 1 5 2 4 2 3
3 3 5 7 7 7 7 7 7 7 7 7 8 9 8 8 8 8 8 8 8 9 10 11 11 10 10 11 10 11 8 8 8 9 8 6 4 4 3 3 2 0 2
6 6 7 7 7 7 7 8 9 8 10 11 9 8 8 7 6 8 8 9 9 10 11 12 13 15 17 14 11 14 13 11 8 9 8 4 3 3 5 4 3 2 2
6 7 7 7 7 8 8 9 8 9 10 10 10 11 10 7 10 14 10 7 9 11 12 13 14 19 20 24 27 28 19 14 15 11 9 10 9 5 3 4 3 2 2
6 8 8 9 10 10 10 9 8 8 8 9 9 9 10 8 12 15 16 9 9 12 13 14 14 14 21 21 24 29 26 20 17 14 12 7 6 7 6 5 3 3 4
10 11 11 12 14 14 14 15 15 12 11 11 11 11 9 9 14 14 16 9 8 12 15 16 16 18 21 26 26 24 23 19 17 10 11 9 5 7 6 6 5 2 2
12 13 13 13 12 10 11 12 12 12 12 9 11 11 9 9 13 15 13 10 8 13 13 14 14 17 23 28 24 23 17 10 6 7 8 9 11 11 8 5 2 2 3
13 13 13 12 13 13 13 13 12 11 12 11 13 15 15 14 15 18 16 6 8 8 9 11 14 15 10 11 11 14 14 13 13 8 6 6 8 6 9 5 6 4 3
13 13 13 13 13 12 13 12 11 11 12 13 13 12 11 12 12 15 14 6 7 6 6 6 7 6 5 9 15 13 15 13 10 8 6 4 4 4 3 4 6 5 4
13 14 14 13 11 11 12 11 11 11 11 11 12 12 9 10 12 12 13 11 5 2 8 5 7 14 10 7 11 14 17 13 8 7 5 4 3 3 4 5 6 6 5
14 14 13 13 12 11 12 11 9 9 9 11 9 8 8 7 7 11 12 9 10 2 5 11 6 12 16 8 12 15 12 7 7 4 4 4 3 3 0 3 4 4 5
15 14 12 12 12 11 9 8 8 8 8 8 9 8 6 4 4 4 4 4 5 2 7 8 4 7 1 7 7 5 5 6 6 5 3 3 3 2 0 2 2 2 1
13 12 12 10 11 10 10 9 8 9 8 8 8 6 5 4 4 4 3 4 4 3 5 2 4 6 4 4 5 4 4 5 4 4 3 3 2 1 2 2 2 2 4
13 11 10 9 9 9 8 9 10 15 14 17 16 7 4 6 9 6 3 2 3 3 3 4 3 7 6 6 5 4 3 4 4 4 3 3 2 2 2 1 3 2 3
13 13 11 12 9 8 8 8 7 7 11 14 14 12 8 5 10 6 0 5 6 3 6 3 4 7 5 6 6 5 5 4 3 3 3 3 3 2 0 3 3 2 3
14 21 11 10 9 8 7 7 5 5 5 6 6 7 8 8 8 7 5 4 4 2 4 3 4 5 5 5 5 4 4 5 3 4 4 3 3 3 3 4 4 4 3
12 10 10 10 9 9 6 6 5 5 7 4 2 4 7 9 8 5 6 2 3 5 2 3 3 3 5 5 5 4 5 4 4 4 3 3 3 4 4 4 4 5 4
11 18 15 10 8 5 4 5 4 4 5 4 2 2 2 2 3 4 3 3 3 4 3 3 3 4 4 5 4 4 4 4 4 3 2 4 5 5 4 5 5 4 5
9 10 12 8 4 1 1 2 3 4 2 2 2 3 5 4 4 4 4 5 3 4 3 3 4 5 4 4 5 4 5 5 4 4 4 2 3 3 4 4 4 4 3
8 8 5 5 4 3 1 1 2 2 1 1 2 1 3 3 3 3 4 4 4 4 3 2 3 5 7 7 7 5 5 5 5 3 2 3 3 3 3 4 4 3 4
8 8 8 5 4 4 3 2 2 2 0 1 2 3 2 3 2 4 4 4 4 3 4 2 3 4 4 4 5 6 6 5 5 4 4 3 2 2 3 4 4 4 6
9 9 9 8 5 3 3 2 3 2 1 2 1 2 3 2 1 2 2 3 1 2 2 1 3 6 6 5 4 5 5 4 4 4 5 3 2 3 4 3 2 4 6
9 9 9 9 8 8 2 2 1 1 2 2 1 0 3 3 3 2 2 3 0 2 2 1 3 6 7 8 8 9 8 6 4 3 2 2 3 4 2 1 3 5 8
10 11 9 9 9 8 8 7 5 3 1 1 1 1 2 3 3 2 2 2 1 1 2 2 2 6 8 6 7 6 6 5 4 4 1 1 3 4 0 6 6 7 9
Wind_Direction
220 227 222 221 216 206 205 214 210 199 201 199 203 201 206 213 225 230 253 282 288 283 270 251 245 222 212 215 210 208 210 211 212 235 197 206 275 249 293 264 224 231 228
304 306 273 247 231 224 221 223 218 217 204 206 203 207 209 214 221 223 230 238 260 284 286 271 258 254 239 210 192 179 167 207 203 230 288 260 268 262 253 239 245 217 240
307 282 277 284 307 290 268 249 231 220 225 221 210 210 208 213 214 222 223 225 225 239 260 267 263 244 218 190 182 193 210 200 210 177 227 233 262 229 257 286 247 265 261
342 333 303 289 277 265 256 261 256 249 258 242 225 224 219 211 208 218 222 229 231 235 239 248 254 241 235 214 212 212 210 216 211 213 199 217 198 208 216 216 241 207 269
322 315 291 284 276 265 260 252 247 236 239 238 239 241 239 225 221 215 218 221 226 241 244 245 242 242 238 232 230 230 225 226 213 208 215 193 162 195 196 185 173 202 290
329 312 307 305 300 290 286 285 275 262 254 244 233 226 230 228 227 229 225 226 233 240 248 247 241 243 239 237 235 238 239 217 208 216 199 217 199 186 160 153 143 139 255
289 291 289 285 286 284 280 273 264 258 253 248 239 223 220 222 224 230 235 236 236 243 245 247 247 249 243 241 240 233 224 203 204 202 199 182 180 172 150 155 163 159 198
293 290 287 285 282 281 280 276 273 266 256 251 244 229 228 230 224 233 250 259 253 254 251 250 250 261 257 240 238 225 210 203 205 191 194 195 157 155 147 152 159 163 311
287 287 289 290 292 298 295 295 296 298 286 256 254 250 238 236 236 241 243 250 248 257 258 252 264 284 273 251 201 191 179 152 141 160 165 150 142 146 137 106 130 117 267
295 294 291 284 285 283 284 283 280 283 285 282 274 263 252 248 243 247 239 224 249 257 257 267 292 288 264 103 129 139 145 139 162 137 119 110 129 142 158 161 156 169 189
291 287 288 284 279 277 283 278 274 278 276 270 266 263 264 255 251 232 240 237 238 256 269 280 291 315 276 130 128 138 157 149 134 132 120 124 128 139 188 200 195 171 179
291 291 288 285 280 275 273 274 269 272 278 280 271 267 251 247 238 246 245 232 228 239 304 261 268 162 227 186 155 134 127 123 128 124 127 134 137 204 228 215 210 213 220
293 290 287 279 276 273 272 270 269 266 266 262 259 267 253 243 239 238 253 231 213 159 284 269 263 181 180 185 132 132 113 117 121 117 142 163 165 186 345 311 259 232 235
292 285 280 278 279 272 266 262 266 262 264 273 269 260 240 240 245 254 245 204 203 193 265 253 201 152 203 119 95 94 114 134 143 152 159 140 119 112 160 208 295 217 251
286 285 282 277 274 274 265 261 260 263 256 268 274 256 232 236 246 241 252 239 197 245 282 210 132 127 145 126 100 122 115 119 135 154 139 136 126 132 240 193 244 240 224
289 289 285 286 281 276 274 272 247 253 261 266 262 275 249 221 166 177 117 0 196 236 269 231 144 147 172 152 139 133 129 148 174 174 147 137 174 213 250 248 230 239 258
293 293 289 285 277 273 268 268 269 271 257 270 231 244 237 150 159 195 47 23 18 221 224 189 154 151 164 153 149 149 173 181 151 167 157 176 201 225 210 242 231 241 191
288 284 277 274 264 262 258 261 244 262 270 282 210 202 224 217 188 200 136 42 326 308 225 160 151 138 150 144 141 143 143 146 155 151 172 186 212 204 175 231 212 220 194
293 288 283 275 267 253 246 254 232 244 272 262 196 173 220 222 229 198 182 151 266 274 236 175 141 148 147 131 142 142 138 143 141 153 179 165 199 194 213 216 213 222 195
299 292 285 279 270 246 221 238 222 247 248 237 245 223 130 120 174 185 176 179 260 296 286 187 165 133 142 148 151 139 136 138 137 154 170 197 212 200 198 208 205 202 216
303 301 298 334 345 239 202 223 220 255 156 276 257 199 180 202 196 185 160 197 208 253 261 202 170 154 169 157 133 171 135 123 150 186 184 200 196 175 202 220 216 198 206
305 313 336 357 5 24 31 240 233 159 143 241 313 3 192 233 189 179 170 194 196 239 254 266 181 175 165 161 148 132 140 170 183 186 155 153 178 191 205 221 220 196 180
331 339 347 3 25 31 26 24 86 142 358 291 331 329 194 251 184 174 192 216 218 227 257 264 133 133 123 129 147 152 140 163 186 167 153 167 174 231 241 242 223 202 187
350 355 358 359 8 38 32 51 63 62 276 258 276 313 357 339 301 112 190 227 241 269 239 292 151 147 140 150 143 128 116 138 146 155 154 147 208 232 239 256 263 228 223
2 3 5 5 3 5 10 59 64 48 338 15 136 279 308 330 18 32 3 27 200 206 215 150 128 130 142 158 149 136 139 150 137 171 167 173 244 263 235 145 124 102 116
10 11 11 7 10 11 11 9 3 6 331 360 154 164 254 284 308 10 34 60 37 169 150 187 210 136 141 136 122 120 139 155 181 204 145 206 260 284 227 121 137 120 131